Location: Camps Bay
(33.9517°S, 18.3844°E)
Time: 13:45:32
(UTC+00:00)

NOSS 2-2 (C) - Pass Details

Date: 18 January 2020
Orbit: 484 x 1725 km, 63.3° (Epoch: 03 February)

Event Time Altitude Azimuth Distance (km) Brightness Sun altitude
Rises 01:21:55 0° 213° (SSW) 4,233 8.1 -25.3°
Reaches altitude 10° 01:25:07 10° 213° (SSW) 3,059 7.3 -24.9°
Maximum altitude 01:32:12 77° 297° (WNW) 920 4.2 -24.0°
Enters shadow 01:34:07 42° 14° (NNE) 1,158 4.6 -23.7°
